TimeAKST,TemperatureF,Dew PointF,Humidity,Sea Level PressureIn,VisibilityMPH,Wind Direction,Wind SpeedMPH,Gust SpeedMPH,PrecipitationIn,Events,Conditions,WindDirDegrees,DateUTC
12:42 AM,39.2,33.8,81,29.70,10.0,ESE,6.9,-,0.00,,Overcast,110,2013-01-06 09:42:00
12:53 AM,39.9,34.0,79,29.71,10.0,ESE,5.8,-,0.00,,Overcast,120,2013-01-06 09:53:00
1:53 AM,37.9,34.0,86,29.73,10.0,SE,5.8,-,N/A,,Overcast,130,2013-01-06 10:53:00
2:45 AM,39.2,33.8,81,29.74,10.0,SE,3.5,-,N/A,,Overcast,130,2013-01-06 11:45:00
3:37 AM,37.4,35.6,93,29.75,10.0,ESE,5.8,-,0.00,Rain,Light Rain,120,2013-01-06 12:37:00
3:53 AM,37.9,35.1,89,29.76,10.0,SE,6.9,-,0.00,,Overcast,130,2013-01-06 12:53:00
4:53 AM,37.9,35.1,89,29.76,10.0,ESE,4.6,-,N/A,,Overcast,110,2013-01-06 13:53:00
5:28 AM,37.4,33.8,87,29.75,10.0,ESE,3.5,-,N/A,,Scattered Clouds,110,2013-01-06 14:28:00
5:53 AM,37.9,33.1,83,29.77,10.0,ESE,4.6,-,N/A,,Scattered Clouds,110,2013-01-06 14:53:00
6:28 AM,37.4,33.8,87,29.76,10.0,ESE,3.5,-,N/A,,Mostly Cloudy,110,2013-01-06 15:28:00
6:42 AM,37.4,33.8,87,29.77,10.0,Calm,Calm,-,N/A,,Scattered Clouds,0,2013-01-06 15:42:00
6:53 AM,37.0,33.1,86,29.77,10.0,ESE,4.6,-,N/A,,Partly Cloudy,120,2013-01-06 15:53:00
7:51 AM,37.4,33.8,87,29.77,10.0,SE,5.8,-,N/A,,Mostly Cloudy,130,2013-01-06 16:51:00
7:53 AM,37.9,33.1,83,29.78,10.0,SE,4.6,-,N/A,,Mostly Cloudy,130,2013-01-06 16:53:00
8:53 AM,39.0,34.0,82,29.80,10.0,Variable,4.6,-,N/A,,Overcast,0,2013-01-06 17:53:00
9:32 AM,39.2,35.6,87,29.80,10.0,ESE,6.9,-,N/A,,Overcast,120,2013-01-06 18:32:00
9:53 AM,37.9,36.0,93,29.82,9.0,ESE,8.1,-,N/A,,Overcast,120,2013-01-06 18:53:00
10:53 AM,39.0,37.0,93,29.81,4.0,ESE,9.2,-,0.00,Rain,Light Rain,120,2013-01-06 19:53:00
11:04 AM,39.2,37.4,93,29.79,6.0,ESE,9.2,-,0.01,Rain,Light Rain,120,2013-01-06 20:04:00
11:17 AM,39.2,37.4,93,29.79,10.0,ESE,9.2,-,0.01,,Overcast,120,2013-01-06 20:17:00
11:27 AM,39.2,37.4,93,29.79,10.0,ESE,9.2,-,0.01,,Overcast,120,2013-01-06 20:27:00
11:53 AM,39.0,37.9,96,29.79,4.0,ESE,10.4,18.4,0.03,Rain,Light Rain,120,2013-01-06 20:53:00
12:53 PM,39.9,37.9,93,29.77,8.0,SE,9.2,-,0.01,Rain,Light Rain,130,2013-01-06 21:53:00
1:03 PM,39.2,37.4,93,29.76,5.0,SE,6.9,-,0.01,Rain,Light Rain,130,2013-01-06 22:03:00
1:29 PM,39.2,37.4,93,29.75,10.0,ESE,10.4,-,0.01,,Overcast,120,2013-01-06 22:29:00
1:50 PM,39.2,37.4,93,29.75,10.0,ESE,10.4,-,0.01,,Overcast,120,2013-01-06 22:50:00
1:53 PM,39.9,37.0,89,29.76,10.0,ESE,11.5,-,0.01,,Overcast,120,2013-01-06 22:53:00
2:09 PM,39.2,37.4,93,29.76,10.0,ESE,10.4,-,N/A,,Overcast,120,2013-01-06 23:09:00
2:53 PM,41.0,36.0,82,29.76,10.0,ESE,11.5,-,N/A,,Overcast,120,2013-01-06 23:53:00
3:07 PM,41.0,35.6,81,29.75,10.0,ESE,9.2,-,N/A,,Overcast,120,2013-01-07 00:07:00
3:17 PM,41.0,35.6,81,29.74,10.0,ESE,11.5,18.4,N/A,,Overcast,120,2013-01-07 00:17:00
3:53 PM,41.0,35.1,79,29.71,10.0,ESE,10.4,20.7,N/A,,Overcast,120,2013-01-07 00:53:00
4:53 PM,41.0,35.1,79,29.69,10.0,ESE,11.5,-,N/A,,Overcast,120,2013-01-07 01:53:00
5:50 PM,41.0,33.8,76,29.65,10.0,ESE,10.4,18.4,N/A,,Overcast,120,2013-01-07 02:50:00
6:53 PM,41.0,34.0,76,29.63,10.0,ESE,15.0,19.6,0.01,Rain,Light Rain,120,2013-01-07 03:53:00
7:53 PM,39.0,35.1,86,29.58,10.0,ESE,13.8,21.9,0.06,Rain,Light Rain,120,2013-01-07 04:53:00
8:53 PM,41.0,36.0,82,29.55,10.0,ESE,13.8,21.9,0.03,Rain,Light Rain,120,2013-01-07 05:53:00
9:53 PM,39.9,36.0,86,29.51,10.0,ESE,13.8,23.0,0.02,,Overcast,120,2013-01-07 06:53:00
10:36 PM,41.0,35.6,81,29.48,10.0,ESE,11.5,20.7,N/A,,Overcast,120,2013-01-07 07:36:00
10:53 PM,41.0,36.0,82,29.49,9.0,ESE,13.8,21.9,N/A,,Overcast,120,2013-01-07 07:53:00
11:53 PM,41.0,36.0,82,29.48,8.0,ESE,16.1,25.3,N/A,,Overcast,120,2013-01-07 08:53:00